When you browse on this site, cookies collect data to enhance your experience and personalize the content and advertising you see.
Visit our Privacy Policy to learn more. By continuing to use the site, you agree to this use of cookies and data.
  • în România
  • Lista ţărilor
  • Pe 7 zile
  • Temperatura apei
  • Hartă satelitară
  • Meteo pe hartă
  • Widget-uri
  • user-avatar
    Intrare

    Meteo pe oră la Gryadki

    Astăzi, 19 Februarie, Marţi

    Timp Temperatura Precipitaţii Vânt Presiune Umiditate
    00:00 -10°C° 0 mm 3 m/s 745 mmHg 82%
    01:00 -10°C° 0 mm 4 m/s 744 mmHg 78%
    02:00 -11°C° 0 mm 5 m/s 744 mmHg 75%
    03:00 -10°C° 0 mm 5 m/s 743 mmHg 75%
    04:00 -10°C° 0 mm 5 m/s 741 mmHg 75%
    05:00 -10°C° 0 mm 6 m/s 740 mmHg 75%
    06:00 -8°C° 0 mm 5 m/s 740 mmHg 76%
    07:00 -8°C° 0 mm 5 m/s 739 mmHg 77%
    08:00 -8°C° 0 mm 5 m/s 739 mmHg 77%
    09:00 -6°C° 0 mm 5 m/s 738 mmHg 78%
    10:00 -5°C° 0 mm 5 m/s 738 mmHg 79%
    11:00 -4°C° 0 mm 5 m/s 738 mmHg 79%
    12:00 -2°C° 0 mm 5 m/s 738 mmHg 81%
    13:00 -2°C° 0 mm 5 m/s 737 mmHg 83%
    14:00 -1°C° 0 mm 4 m/s 737 mmHg 85%
    15:00 -1°C° 0 mm 4 m/s 737 mmHg 86%
    16:00 -2°C° 0 mm 4 m/s 736 mmHg 88%
    17:00 -2°C° 0 mm 4 m/s 736 mmHg 89%
    18:00 -2°C° 0 mm 4 m/s 736 mmHg 90%
    19:00 -3°C° 0 mm 4 m/s 735 mmHg 90%
    20:00 -3°C° 0 mm 4 m/s 734 mmHg 91%
    21:00 -3°C° 0 mm 4 m/s 734 mmHg 91%
    22:00 -3°C° 0 mm 4 m/s 733 mmHg 90%
    23:00 -3°C° 0 mm 4 m/s 732 mmHg 90%

    Mâine, 20 Februarie, Miercuri

    Timp Temperatura Precipitaţii Vânt Presiune Umiditate
    00:00 -3°C° 0.1 mm 4 m/s 732 mmHg 90%
    01:00 -3°C° 0.1 mm 4 m/s 731 mmHg 90%
    02:00 -2°C° 0.1 mm 4 m/s 730 mmHg 90%
    03:00 -2°C° 0.1 mm 4 m/s 730 mmHg 89%
    04:00 -2°C° 0.1 mm 4 m/s 729 mmHg 89%
    05:00 -2°C° 0.1 mm 4 m/s 728 mmHg 88%
    06:00 -1°C° 0.2 mm 4 m/s 728 mmHg 89%
    07:00 -1°C° 0.2 mm 5 m/s 728 mmHg 90%
    08:00 -1°C° 0.2 mm 5 m/s 728 mmHg 91%
    09:00 -1°C° 0 mm 5 m/s 728 mmHg 90%
    10:00 0°C° 0 mm 4 m/s 728 mmHg 90%
    11:00 0°C° 0 mm 4 m/s 728 mmHg 89%
    12:00 0°C° 0.2 mm 4 m/s 728 mmHg 90%
    13:00 0°C° 0.2 mm 4 m/s 728 mmHg 90%
    14:00 0°C° 0.2 mm 4 m/s 728 mmHg 90%
    15:00 0°C° 0.1 mm 4 m/s 728 mmHg 90%
    16:00 -1°C° 0.1 mm 4 m/s 728 mmHg 91%
    17:00 -1°C° 0.1 mm 4 m/s 727 mmHg 91%
    18:00 0°C° 0.1 mm 3 m/s 727 mmHg 91%
    19:00 0°C° 0.1 mm 3 m/s 727 mmHg 92%
    20:00 0°C° 0.1 mm 3 m/s 727 mmHg 92%
    21:00 0°C° 0 mm 3 m/s 727 mmHg 93%
    22:00 -1°C° 0 mm 3 m/s 727 mmHg 93%
    23:00 -1°C° 0 mm 2 m/s 727 mmHg 94%

    Poimâine, 21 Februarie, Joi

    Timp Temperatura Precipitaţii Vânt Presiune Umiditate
    00:00 -1°C° 0.1 mm 2 m/s 727 mmHg 95%
    01:00 -1°C° 0.1 mm 2 m/s 727 mmHg 95%
    02:00 -1°C° 0.1 mm 2 m/s 727 mmHg 96%
    03:00 -1°C° 0.1 mm 2 m/s 727 mmHg 96%
    04:00 -1°C° 0.1 mm 2 m/s 727 mmHg 96%
    05:00 -1°C° 0.1 mm 2 m/s 727 mmHg 96%
    06:00 -1°C° 0.2 mm 2 m/s 727 mmHg 96%
    07:00 -1°C° 0.2 mm 2 m/s 728 mmHg 96%
    08:00 -1°C° 0.2 mm 2 m/s 728 mmHg 95%
    09:00 -1°C° 0.6 mm 3 m/s 729 mmHg 94%
    10:00 -2°C° 0.6 mm 4 m/s 730 mmHg 93%
    11:00 -3°C° 0.6 mm 4 m/s 731 mmHg 92%
    12:00 -5°C° 0.4 mm 5 m/s 732 mmHg 90%
    13:00 -8°C° 0.4 mm 6 m/s 732 mmHg 88%
    14:00 -9°C° 0.4 mm 7 m/s 733 mmHg 86%
    15:00 -11°C° 0.2 mm 7 m/s 734 mmHg 84%
    16:00 -12°C° 0.2 mm 7 m/s 736 mmHg 82%
    17:00 -12°C° 0.2 mm 7 m/s 737 mmHg 81%
    18:00 -13°C° 0.1 mm 7 m/s 738 mmHg 79%
    19:00 -13°C° 0.1 mm 7 m/s 739 mmHg 77%
    20:00 -14°C° 0.1 mm 7 m/s 740 mmHg 75%
    21:00 -15°C° 0 mm 6 m/s 741 mmHg 75%
    22:00 -15°C° 0 mm 6 m/s 741 mmHg 75%
    23:00 -16°C° 0 mm 6 m/s 742 mmHg 74%

    22 Februarie, Vineri

    Timp Temperatura Precipitaţii Vânt Presiune Umiditate
    00:00 -16°C° 0 mm 6 m/s 743 mmHg 75%
    01:00 -16°C° 0 mm 6 m/s 744 mmHg 75%
    02:00 -16°C° 0 mm 6 m/s 744 mmHg 76%
    03:00 -16°C° 0 mm 6 m/s 745 mmHg 76%
    04:00 -16°C° 0 mm 6 m/s 745 mmHg 77%
    05:00 -16°C° 0 mm 6 m/s 746 mmHg 77%
    06:00 -16°C° 0 mm 6 m/s 746 mmHg 78%
    07:00 -16°C° 0 mm 6 m/s 747 mmHg 78%
    08:00 -16°C° 0 mm 6 m/s 748 mmHg 79%
    09:00 -15°C° 0 mm 6 m/s 748 mmHg 76%
    10:00 -15°C° 0 mm 6 m/s 748 mmHg 74%
    11:00 -14°C° 0 mm 6 m/s 748 mmHg 72%
    12:00 -14°C° 0 mm 6 m/s 749 mmHg 71%
    13:00 -14°C° 0 mm 7 m/s 749 mmHg 70%
    14:00 -14°C° 0 mm 7 m/s 749 mmHg 70%
    15:00 -14°C° 0 mm 6 m/s 749 mmHg 71%
    16:00 -15°C° 0 mm 6 m/s 750 mmHg 73%
    17:00 -15°C° 0 mm 6 m/s 751 mmHg 74%
    18:00 -15°C° 0 mm 6 m/s 751 mmHg 75%
    19:00 -15°C° 0 mm 6 m/s 752 mmHg 76%
    20:00 -15°C° 0 mm 6 m/s 752 mmHg 77%
    21:00 -15°C° 0 mm 5 m/s 753 mmHg 79%
    22:00 -15°C° 0 mm 5 m/s 753 mmHg 80%
    23:00 -15°C° 0 mm 5 m/s 753 mmHg 82%

    23 Februarie, Sâmbătă

    Timp Temperatura Precipitaţii Vânt Presiune Umiditate
    00:00 -15°C° 0 mm 4 m/s 754 mmHg 84%
    01:00 -16°C° 0 mm 4 m/s 754 mmHg 85%
    02:00 -16°C° 0 mm 4 m/s 754 mmHg 87%
    03:00 -16°C° 0 mm 3 m/s 754 mmHg 89%
    04:00 -16°C° 0 mm 3 m/s 754 mmHg 91%
    05:00 -17°C° 0 mm 3 m/s 754 mmHg 92%
    06:00 -16°C° 0 mm 3 m/s 754 mmHg 92%
    07:00 -16°C° 0 mm 3 m/s 754 mmHg 92%
    08:00 -15°C° 0 mm 2 m/s 755 mmHg 92%
    09:00 -14°C° 0 mm 2 m/s 755 mmHg 89%
    10:00 -13°C° 0 mm 2 m/s 755 mmHg 87%
    11:00 -12°C° 0 mm 2 m/s 755 mmHg 84%
    12:00 -10°C° 0 mm 2 m/s 755 mmHg 83%
    13:00 -9°C° 0 mm 2 m/s 755 mmHg 82%
    14:00 -9°C° 0 mm 2 m/s 755 mmHg 81%
    15:00 -8°C° 0 mm 1 m/s 755 mmHg 84%
    16:00 -9°C° 0 mm 1 m/s 755 mmHg 88%
    17:00 -10°C° 0 mm 1 m/s 755 mmHg 92%
    18:00 -10°C° 0 mm 1 m/s 755 mmHg 92%
    19:00 -11°C° 0 mm 1 m/s 756 mmHg 91%
    20:00 -11°C° 0 mm 1 m/s 756 mmHg 91%
    21:00 -11°C° 0 mm 1 m/s 756 mmHg 90%
    22:00 -11°C° 0 mm 1 m/s 757 mmHg 89%
    23:00 -11°C° 0 mm 1 m/s 757 mmHg 88%

    24 Februarie, Duminică

    Timp Temperatura Precipitaţii Vânt Presiune Umiditate
    00:00 -12°C° 0 mm 1 m/s 757 mmHg 88%
    01:00 -12°C° 0 mm 1 m/s 757 mmHg 87%
    02:00 -12°C° 0 mm 1 m/s 757 mmHg 87%
    03:00 -14°C° 0 mm 2 m/s 757 mmHg 86%
    04:00 -14°C° 0 mm 2 m/s 757 mmHg 85%
    05:00 -14°C° 0 mm 2 m/s 757 mmHg 85%
    06:00 -14°C° 0 mm 2 m/s 757 mmHg 82%
    07:00 -13°C° 0 mm 2 m/s 757 mmHg 79%
    08:00 -13°C° 0 mm 3 m/s 756 mmHg 76%
    09:00 -12°C° 0 mm 3 m/s 756 mmHg 77%
    10:00 -10°C° 0 mm 3 m/s 756 mmHg 77%
    11:00 -10°C° 0 mm 4 m/s 755 mmHg 77%
    12:00 -9°C° 0 mm 4 m/s 755 mmHg 78%
    13:00 -8°C° 0 mm 4 m/s 754 mmHg 79%
    14:00 -7°C° 0 mm 4 m/s 754 mmHg 80%
    15:00 -7°C° 0 mm 4 m/s 753 mmHg 81%
    16:00 -7°C° 0 mm 5 m/s 752 mmHg 82%
    17:00 -7°C° 0 mm 5 m/s 751 mmHg 83%
    18:00 -7°C° 0 mm 5 m/s 750 mmHg 83%
    19:00 -7°C° 0 mm 5 m/s 749 mmHg 83%
    20:00 -7°C° 0 mm 5 m/s 748 mmHg 83%
    21:00 -7°C° 0.1 mm 5 m/s 747 mmHg 84%
    22:00 -7°C° 0.1 mm 5 m/s 746 mmHg 85%
    23:00 -7°C° 0.1 mm 5 m/s 745 mmHg 86%
    Arată mai mult